PROTG SSUM-SBBR

Flight info

Callsign PROTG
Flight time 1h 58m
Altitude 25000
Route OPMED UM532 ILPAV
Aircraft B350/L-SBGRW/S

Departure

Time 2026-04-21 21:13
Airport Orlando de Carvalho Airport (SSUM)

Arrival

Time 2026-04-21 23:12
Airport Presidente Juscelino Kubitschek International Airport (SBBR)
Time Latitude Longitude Altitude Speed Heading
2026-04-21 21:07 -23.79815 -53.31495 1508 ft 0 kts 299°
2026-04-21 21:10 -23.79808 -53.31487 1509 ft 6 kts 92°
2026-04-21 21:11 -23.79810 -53.31442 1510 ft 13 kts 92°
2026-04-21 21:11 -23.79886 -53.31382 1514 ft 18 kts 203°
2026-04-21 21:11 -23.80008 -53.31448 1514 ft 11 kts 200°
2026-04-21 21:11 -23.80070 -53.31473 1514 ft 15 kts 201°
2026-04-21 21:12 -23.80225 -53.31535 1514 ft 30 kts 199°
2026-04-21 21:12 -23.80380 -53.31595 1514 ft 17 kts 200°
2026-04-21 21:12 -23.80487 -53.31619 1514 ft 12 kts 275°
2026-04-21 21:12 -23.80360 -53.31583 1514 ft 48 kts 20°
2026-04-21 21:13 -23.79801 -53.31352 1545 ft 110 kts 22°
2026-04-21 21:13 -23.78978 -53.31100 1844 ft 133 kts 17°
2026-04-21 21:13 -23.78643 -53.31005 2171 ft 124 kts 17°
2026-04-21 21:13 -23.78006 -53.30827 2333 ft 144 kts 17°
2026-04-21 21:14 -23.77153 -53.30547 2704 ft 155 kts 20°
2026-04-21 21:14 -23.76930 -53.30463 2788 ft 157 kts 21°
2026-04-21 21:14 -23.76276 -53.30000 2922 ft 173 kts 46°
2026-04-21 21:14 -23.75595 -53.28899 3425 ft 176 kts 62°
2026-04-21 21:15 -23.75218 -53.27579 3898 ft 185 kts 76°
2026-04-21 21:15 -23.74995 -53.26168 4424 ft 191 kts 81°
2026-04-21 21:15 -23.74852 -53.24741 5050 ft 190 kts 83°
2026-04-21 21:15 -23.74738 -53.23320 5674 ft 188 kts 84°
2026-04-21 21:16 -23.74634 -53.21918 6266 ft 187 kts 84°
2026-04-21 21:16 -23.74534 -53.20522 6815 ft 188 kts 84°
2026-04-21 21:16 -23.74434 -53.19096 7349 ft 189 kts 85°
2026-04-21 21:16 -23.74333 -53.17663 7861 ft 191 kts 85°
2026-04-21 21:17 -23.74232 -53.16235 8355 ft 193 kts 85°
2026-04-21 21:17 -23.74129 -53.14768 8840 ft 195 kts 85°
2026-04-21 21:17 -23.74024 -53.13282 9314 ft 197 kts 86°
2026-04-21 21:17 -23.73920 -53.11808 9787 ft 198 kts 86°
2026-04-21 21:18 -23.73814 -53.10307 10255 ft 198 kts 86°
2026-04-21 21:18 -23.73710 -53.08827 10713 ft 198 kts 85°
2026-04-21 21:18 -23.73604 -53.07332 11155 ft 198 kts 85°
2026-04-21 21:18 -23.73497 -53.05830 11576 ft 199 kts 85°
2026-04-21 21:19 -23.73389 -53.04316 11968 ft 201 kts 85°
2026-04-21 21:19 -23.73282 -53.02809 12352 ft 202 kts 85°
2026-04-21 21:19 -23.73174 -53.01288 12729 ft 203 kts 85°
2026-04-21 21:19 -23.73063 -52.99739 13114 ft 204 kts 85°
2026-04-21 21:20 -23.72953 -52.98195 13476 ft 204 kts 85°
2026-04-21 21:20 -23.72842 -52.96656 13818 ft 206 kts 86°
2026-04-21 21:20 -23.72730 -52.95083 14157 ft 207 kts 86°
2026-04-21 21:20 -23.72618 -52.93531 14486 ft 207 kts 86°
2026-04-21 21:21 -23.72504 -52.91947 14877 ft 213 kts 86°
2026-04-21 21:21 -23.72388 -52.90344 15374 ft 214 kts 86°
2026-04-21 21:21 -23.72271 -52.88723 15905 ft 213 kts 86°
2026-04-21 21:21 -23.72155 -52.87114 16405 ft 212 kts 86°
2026-04-21 21:22 -23.72039 -52.85521 16882 ft 212 kts 86°
2026-04-21 21:22 -23.71924 -52.83928 17314 ft 213 kts 86°
2026-04-21 21:22 -23.71807 -52.82309 17731 ft 215 kts 86°
2026-04-21 21:22 -23.71689 -52.80680 18147 ft 216 kts 86°
2026-04-21 21:23 -23.71569 -52.79042 18545 ft 217 kts 86°
2026-04-21 21:23 -23.71450 -52.77414 18926 ft 218 kts 86°
2026-04-21 21:23 -23.71328 -52.75766 19316 ft 218 kts 86°
2026-04-21 21:23 -23.71208 -52.74126 19679 ft 220 kts 86°
2026-04-21 21:24 -23.71086 -52.72457 20050 ft 220 kts 86°
2026-04-21 21:24 -23.70963 -52.70792 20402 ft 221 kts 86°
2026-04-21 21:24 -23.70842 -52.69133 20738 ft 221 kts 86°
2026-04-21 21:24 -23.70719 -52.67458 21078 ft 222 kts 86°
2026-04-21 21:25 -23.70595 -52.65774 21411 ft 222 kts 86°
2026-04-21 21:25 -23.70471 -52.64101 21723 ft 222 kts 86°
2026-04-21 21:25 -23.70348 -52.62424 22001 ft 224 kts 86°
2026-04-21 21:25 -23.70221 -52.60714 22279 ft 226 kts 86°
2026-04-21 21:26 -23.70095 -52.59005 22547 ft 228 kts 87°
2026-04-21 21:26 -23.69966 -52.57274 22839 ft 228 kts 87°
2026-04-21 21:26 -23.69838 -52.55545 23123 ft 228 kts 86°
2026-04-21 21:26 -23.69710 -52.53822 23409 ft 228 kts 87°
2026-04-21 21:27 -23.69582 -52.52114 23679 ft 228 kts 87°
2026-04-21 21:27 -23.69452 -52.50377 23939 ft 229 kts 88°
2026-04-21 21:27 -23.69324 -52.48653 24192 ft 229 kts 87°
2026-04-21 21:27 -23.69195 -52.46937 24441 ft 229 kts 87°
2026-04-21 21:28 -23.69065 -52.45206 24686 ft 228 kts 88°
2026-04-21 21:28 -23.68935 -52.43470 24910 ft 229 kts 88°
2026-04-21 21:28 -23.68666 -52.39867 25039 ft 249 kts 88°
2026-04-21 21:29 -23.68521 -52.37941 25049 ft 261 kts 88°
2026-04-21 21:29 -23.68371 -52.35939 25045 ft 272 kts 88°
2026-04-21 21:29 -23.68212 -52.33832 25033 ft 283 kts 87°
2026-04-21 21:29 -23.68048 -52.31671 25031 ft 293 kts 87°
2026-04-21 21:30 -23.67877 -52.29419 25031 ft 302 kts 87°
2026-04-21 21:30 -23.67700 -52.27101 25022 ft 311 kts 87°
2026-04-21 21:30 -23.67521 -52.24753 25020 ft 318 kts 86°
2026-04-21 21:30 -23.67335 -52.22315 25028 ft 325 kts 87°
2026-04-21 21:31 -23.67146 -52.19850 25051 ft 331 kts 87°
2026-04-21 21:31 -23.66951 -52.17319 25054 ft 337 kts 87°
2026-04-21 21:31 -23.66576 -52.14774 25026 ft 345 kts 72°
2026-04-21 21:31 -23.65385 -52.12502 25026 ft 347 kts 49°
2026-04-21 21:32 -23.63552 -52.10862 25043 ft 346 kts 26°
2026-04-21 21:32 -23.61327 -52.09799 25069 ft 347 kts 20°
2026-04-21 21:32 -23.59083 -52.08762 25060 ft 352 kts 20°
2026-04-21 21:32 -23.56831 -52.07708 25053 ft 355 kts 20°
2026-04-21 21:33 -23.54559 -52.06641 25057 ft 358 kts 21°
2026-04-21 21:33 -23.52249 -52.05552 25060 ft 360 kts 21°
2026-04-21 21:33 -23.49936 -52.04463 25055 ft 362 kts 21°
2026-04-21 21:33 -23.47642 -52.03383 25055 ft 364 kts 21°
2026-04-21 21:34 -23.45306 -52.02283 25059 ft 365 kts 21°
2026-04-21 21:34 -23.42953 -52.01175 25057 ft 367 kts 21°
2026-04-21 21:34 -23.40624 -52.00079 25048 ft 368 kts 21°
2026-04-21 21:34 -23.38233 -51.98955 25054 ft 369 kts 21°
2026-04-21 21:35 -23.35890 -51.97854 25059 ft 370 kts 21°
2026-04-21 21:35 -23.33507 -51.96733 25056 ft 371 kts 21°
2026-04-21 21:35 -23.31138 -51.95621 25048 ft 372 kts 21°
2026-04-21 21:35 -23.28746 -51.94497 25059 ft 372 kts 21°
2026-04-21 21:36 -23.26389 -51.93391 25055 ft 371 kts 21°
2026-04-21 21:36 -23.24002 -51.92271 25053 ft 368 kts 21°
2026-04-21 21:36 -23.21653 -51.91169 25042 ft 365 kts 21°
2026-04-21 21:36 -23.19319 -51.90075 25053 ft 362 kts 21°
2026-04-21 21:37 -23.17014 -51.88994 25051 ft 360 kts 21°
2026-04-21 21:37 -23.14729 -51.87924 25046 ft 359 kts 21°
2026-04-21 21:37 -23.12433 -51.86849 25052 ft 357 kts 21°
2026-04-21 21:37 -23.10144 -51.85778 25049 ft 356 kts 21°
2026-04-21 21:38 -23.07857 -51.84707 25054 ft 355 kts 21°
2026-04-21 21:38 -23.05611 -51.83657 25055 ft 354 kts 21°
2026-04-21 21:38 -23.03322 -51.82586 25056 ft 354 kts 21°
2026-04-21 21:38 -23.01084 -51.81540 25051 ft 353 kts 21°
2026-04-21 21:39 -22.98822 -51.80483 25053 ft 352 kts 21°
2026-04-21 21:39 -22.96558 -51.79426 25047 ft 352 kts 21°
2026-04-21 21:39 -22.94310 -51.78376 25052 ft 351 kts 22°
2026-04-21 21:39 -22.92076 -51.77334 25051 ft 351 kts 21°
2026-04-21 21:40 -22.89816 -51.76279 25051 ft 350 kts 21°
2026-04-21 21:40 -22.87598 -51.75244 25047 ft 350 kts 21°
2026-04-21 21:40 -22.85362 -51.74202 25045 ft 349 kts 21°
2026-04-21 21:40 -22.83122 -51.73157 25048 ft 349 kts 21°
2026-04-21 21:41 -22.80866 -51.72104 25043 ft 349 kts 21°
2026-04-21 21:41 -22.78656 -51.71072 25045 ft 348 kts 21°
2026-04-21 21:41 -22.76434 -51.70036 25040 ft 348 kts 21°
2026-04-21 21:41 -22.74196 -51.68993 25047 ft 348 kts 21°
2026-04-21 21:42 -22.71967 -51.67954 25043 ft 348 kts 21°
2026-04-21 21:42 -22.69737 -51.66915 25043 ft 347 kts 21°
2026-04-21 21:42 -22.67533 -51.65888 25044 ft 347 kts 21°
2026-04-21 21:42 -22.65311 -51.64854 25047 ft 347 kts 22°
2026-04-21 21:43 -22.63067 -51.63810 25046 ft 347 kts 22°
2026-04-21 21:43 -22.60848 -51.62778 25040 ft 347 kts 22°
2026-04-21 21:43 -22.58641 -51.61751 25044 ft 347 kts 22°
2026-04-21 21:43 -22.56409 -51.60714 25039 ft 347 kts 22°
2026-04-21 21:44 -22.54202 -51.59688 25038 ft 347 kts 22°
2026-04-21 21:44 -22.51978 -51.58655 25038 ft 347 kts 22°
2026-04-21 21:44 -22.49773 -51.57630 25040 ft 346 kts 22°
2026-04-21 21:44 -22.47538 -51.56593 25043 ft 346 kts 22°
2026-04-21 21:45 -22.45341 -51.55573 25038 ft 346 kts 22°
2026-04-21 21:45 -22.43112 -51.54539 25038 ft 346 kts 22°
2026-04-21 21:45 -22.40913 -51.53519 25027 ft 346 kts 22°
2026-04-21 21:45 -22.38674 -51.52481 25027 ft 346 kts 22°
2026-04-21 21:46 -22.36447 -51.51450 25026 ft 346 kts 22°
2026-04-21 21:46 -22.34230 -51.50422 25024 ft 346 kts 22°
2026-04-21 21:46 -22.32036 -51.49406 25026 ft 346 kts 22°
2026-04-21 21:46 -22.29804 -51.48373 25022 ft 346 kts 22°
2026-04-21 21:47 -22.27578 -51.47343 25026 ft 346 kts 22°
2026-04-21 21:47 -22.25362 -51.46317 25027 ft 346 kts 22°
2026-04-21 21:47 -22.23172 -51.45305 25022 ft 346 kts 22°
2026-04-21 21:47 -22.20964 -51.44284 25028 ft 346 kts 22°
2026-04-21 21:48 -22.18746 -51.43259 25024 ft 346 kts 22°
2026-04-21 21:48 -22.16541 -51.42194 25022 ft 346 kts 26°
2026-04-21 21:48 -22.14371 -51.41007 25028 ft 346 kts 26°
2026-04-21 21:48 -22.12243 -51.39847 25025 ft 346 kts 26°
2026-04-21 21:49 -22.10081 -51.38672 25024 ft 346 kts 26°
2026-04-21 21:49 -22.07921 -51.37498 25025 ft 346 kts 26°
2026-04-21 21:49 -22.05787 -51.36338 25022 ft 346 kts 26°
2026-04-21 21:49 -22.03610 -51.35157 25027 ft 346 kts 26°
2026-04-21 21:50 -22.01458 -51.33989 25030 ft 346 kts 26°
2026-04-21 21:50 -21.99305 -51.32821 25024 ft 346 kts 25°
2026-04-21 21:50 -21.97153 -51.31654 25029 ft 345 kts 25°
2026-04-21 21:50 -21.95029 -51.30502 25022 ft 346 kts 25°
2026-04-21 21:51 -21.92866 -51.29330 25027 ft 345 kts 25°
2026-04-21 21:51 -21.90725 -51.28171 25025 ft 345 kts 25°
2026-04-21 21:51 -21.88577 -51.27008 25026 ft 345 kts 26°
2026-04-21 21:51 -21.86418 -51.25839 25022 ft 345 kts 26°
2026-04-21 21:52 -21.84275 -51.24680 25019 ft 345 kts 26°
2026-04-21 21:52 -21.82127 -51.23518 25023 ft 344 kts 26°
2026-04-21 21:52 -21.79967 -51.22349 25024 ft 344 kts 26°
2026-04-21 21:52 -21.77836 -51.21197 25024 ft 344 kts 26°
2026-04-21 21:53 -21.75685 -51.20035 25024 ft 344 kts 26°
2026-04-21 21:53 -21.73546 -51.18879 25029 ft 344 kts 26°
2026-04-21 21:53 -21.71415 -51.17688 25029 ft 344 kts 27°
2026-04-21 21:53 -21.69305 -51.16504 25028 ft 344 kts 27°
2026-04-21 21:54 -21.67186 -51.15316 25031 ft 344 kts 27°
2026-04-21 21:54 -21.65037 -51.14111 25029 ft 344 kts 27°
2026-04-21 21:54 -21.62930 -51.12931 25025 ft 344 kts 27°
2026-04-21 21:54 -21.60801 -51.11738 25024 ft 344 kts 27°
2026-04-21 21:55 -21.58670 -51.10545 25019 ft 344 kts 27°
2026-04-21 21:55 -21.56534 -51.09349 25016 ft 344 kts 27°
2026-04-21 21:55 -21.54431 -51.08159 25017 ft 344 kts 27°
2026-04-21 21:55 -21.52293 -51.06944 25020 ft 344 kts 27°
2026-04-21 21:56 -21.50175 -51.05741 25018 ft 344 kts 27°
2026-04-21 21:56 -21.48058 -51.04538 25019 ft 344 kts 27°
2026-04-21 21:56 -21.45936 -51.03331 25016 ft 344 kts 27°
2026-04-21 21:56 -21.43811 -51.02117 25016 ft 344 kts 27°
2026-04-21 21:57 -21.41712 -51.00920 25019 ft 344 kts 27°
2026-04-21 21:57 -21.39593 -50.99710 25019 ft 344 kts 27°
2026-04-21 21:57 -21.37467 -50.98498 25018 ft 344 kts 27°
2026-04-21 21:57 -21.35353 -50.97292 25026 ft 344 kts 27°
2026-04-21 21:58 -21.33248 -50.96092 25025 ft 344 kts 27°
2026-04-21 21:58 -21.31124 -50.94882 25021 ft 344 kts 27°
2026-04-21 21:58 -21.28990 -50.93666 25020 ft 344 kts 27°
2026-04-21 21:58 -21.26884 -50.92466 25028 ft 344 kts 27°
2026-04-21 21:59 -21.24762 -50.91257 25024 ft 344 kts 28°
2026-04-21 21:59 -21.22639 -50.90046 25025 ft 344 kts 28°
2026-04-21 21:59 -21.20542 -50.88850 25026 ft 344 kts 28°
2026-04-21 21:59 -21.18422 -50.87642 25021 ft 344 kts 28°
2026-04-21 22:00 -21.16318 -50.86444 25020 ft 344 kts 28°
2026-04-21 22:00 -21.14190 -50.85232 25022 ft 344 kts 28°
2026-04-21 22:00 -21.12070 -50.84025 25013 ft 344 kts 28°
2026-04-21 22:00 -21.09941 -50.82816 25011 ft 344 kts 28°
2026-04-21 22:01 -21.07822 -50.81613 25014 ft 344 kts 28°
2026-04-21 22:01 -21.05716 -50.80418 25008 ft 345 kts 28°
2026-04-21 22:01 -21.03590 -50.79212 25004 ft 345 kts 28°
2026-04-21 22:01 -21.01455 -50.78001 25009 ft 345 kts 28°
2026-04-21 22:02 -20.99349 -50.76807 25006 ft 344 kts 28°
2026-04-21 22:02 -20.97238 -50.75611 24996 ft 344 kts 28°
2026-04-21 22:02 -20.95108 -50.74404 24999 ft 344 kts 28°
2026-04-21 22:02 -20.92984 -50.73201 25004 ft 344 kts 28°
2026-04-21 22:03 -20.90883 -50.72012 25002 ft 344 kts 28°
2026-04-21 22:03 -20.88763 -50.70812 25002 ft 344 kts 28°
2026-04-21 22:03 -20.86638 -50.69609 25003 ft 344 kts 28°
2026-04-21 22:03 -20.84528 -50.68416 25005 ft 344 kts 28°
2026-04-21 22:04 -20.82425 -50.67227 25006 ft 343 kts 28°
2026-04-21 22:04 -20.80299 -50.66025 25008 ft 344 kts 28°
2026-04-21 22:04 -20.78174 -50.64827 25003 ft 344 kts 28°
2026-04-21 22:04 -20.76061 -50.63666 25012 ft 343 kts 27°
2026-04-21 22:05 -20.73925 -50.62495 25007 ft 344 kts 27°
2026-04-21 22:05 -20.71783 -50.61321 25010 ft 344 kts 27°
2026-04-21 22:05 -20.69661 -50.60157 25004 ft 344 kts 27°
2026-04-21 22:05 -20.67515 -50.58981 25010 ft 343 kts 27°
2026-04-21 22:06 -20.65409 -50.57827 25018 ft 343 kts 27°
2026-04-21 22:06 -20.63268 -50.56655 25004 ft 343 kts 27°
2026-04-21 22:06 -20.61159 -50.55500 25009 ft 343 kts 27°
2026-04-21 22:06 -20.59027 -50.54333 25007 ft 343 kts 27°
2026-04-21 22:07 -20.56900 -50.53170 25009 ft 343 kts 27°
2026-04-21 22:07 -20.54763 -50.52002 25015 ft 343 kts 27°
2026-04-21 22:07 -20.52639 -50.50840 25008 ft 343 kts 27°
2026-04-21 22:07 -20.50508 -50.49675 25006 ft 343 kts 27°
2026-04-21 22:08 -20.48407 -50.48528 25014 ft 343 kts 27°
2026-04-21 22:08 -20.46274 -50.47363 25014 ft 343 kts 27°
2026-04-21 22:08 -20.44143 -50.46199 25017 ft 343 kts 27°
2026-04-21 22:08 -20.42013 -50.45036 25018 ft 343 kts 27°
2026-04-21 22:09 -20.39883 -50.43874 25018 ft 343 kts 27°
2026-04-21 22:09 -20.37755 -50.42713 25014 ft 343 kts 27°
2026-04-21 22:09 -20.35620 -50.41548 25023 ft 343 kts 27°
2026-04-21 22:09 -20.33506 -50.40396 25024 ft 343 kts 27°
2026-04-21 22:10 -20.31371 -50.39232 25024 ft 343 kts 27°
2026-04-21 22:10 -20.29251 -50.38077 25033 ft 342 kts 27°
2026-04-21 22:10 -20.27121 -50.36917 25035 ft 343 kts 28°
2026-04-21 22:10 -20.24998 -50.35761 25034 ft 343 kts 28°
2026-04-21 22:11 -20.22864 -50.34599 25037 ft 343 kts 27°
2026-04-21 22:11 -20.20758 -50.33453 25032 ft 343 kts 27°
2026-04-21 22:11 -20.18628 -50.32294 25031 ft 343 kts 27°
2026-04-21 22:11 -20.16490 -50.31132 25027 ft 343 kts 27°
2026-04-21 22:12 -20.14360 -50.29974 25024 ft 343 kts 27°
2026-04-21 22:12 -20.12254 -50.28829 25034 ft 342 kts 27°
2026-04-21 22:12 -20.10117 -50.27669 25020 ft 343 kts 27°
2026-04-21 22:12 -20.08004 -50.26526 25023 ft 343 kts 27°
2026-04-21 22:13 -20.05864 -50.25367 25010 ft 343 kts 27°
2026-04-21 22:13 -20.03727 -50.24210 25012 ft 343 kts 27°
2026-04-21 22:13 -20.01600 -50.23060 25004 ft 343 kts 27°
2026-04-21 22:13 -19.99467 -50.21907 25001 ft 343 kts 27°
2026-04-21 22:14 -19.97350 -50.20764 25004 ft 343 kts 27°
2026-04-21 22:14 -19.95206 -50.19607 25007 ft 343 kts 27°
2026-04-21 22:14 -19.93074 -50.18456 25002 ft 343 kts 27°
2026-04-21 22:14 -19.90935 -50.17303 25002 ft 343 kts 27°
2026-04-21 22:15 -19.88808 -50.16156 25004 ft 342 kts 27°
2026-04-21 22:15 -19.86678 -50.15008 25001 ft 342 kts 27°
2026-04-21 22:15 -19.84563 -50.13869 25001 ft 342 kts 27°
2026-04-21 22:15 -19.82440 -50.12725 24995 ft 342 kts 27°
2026-04-21 22:16 -19.80318 -50.11583 24998 ft 341 kts 27°
2026-04-21 22:16 -19.78185 -50.10434 25002 ft 341 kts 27°
2026-04-21 22:16 -19.76065 -50.09293 25000 ft 341 kts 27°
2026-04-21 22:16 -19.73937 -50.08148 25007 ft 341 kts 27°
2026-04-21 22:17 -19.71802 -50.07000 25002 ft 341 kts 27°
2026-04-21 22:17 -19.69696 -50.05868 24999 ft 341 kts 27°
2026-04-21 22:17 -19.67559 -50.04719 25004 ft 341 kts 27°
2026-04-21 22:17 -19.65439 -50.03580 25008 ft 341 kts 27°
2026-04-21 22:18 -19.63327 -50.02445 25015 ft 341 kts 27°
2026-04-21 22:18 -19.61191 -50.01298 25015 ft 341 kts 27°
2026-04-21 22:18 -19.59086 -50.00168 25018 ft 341 kts 27°
2026-04-21 22:18 -19.56951 -49.99022 25022 ft 341 kts 27°
2026-04-21 22:19 -19.54816 -49.97877 25019 ft 341 kts 27°
2026-04-21 22:19 -19.52701 -49.96742 25023 ft 341 kts 27°
2026-04-21 22:19 -19.50589 -49.95610 25024 ft 341 kts 27°
2026-04-21 22:19 -19.48464 -49.94471 25028 ft 341 kts 27°
2026-04-21 22:20 -19.46319 -49.93321 25035 ft 340 kts 27°
2026-04-21 22:20 -19.44206 -49.92189 25035 ft 340 kts 27°
2026-04-21 22:20 -19.42080 -49.91050 25032 ft 341 kts 28°
2026-04-21 22:20 -19.39967 -49.89919 25034 ft 341 kts 27°
2026-04-21 22:21 -19.37853 -49.88787 25035 ft 341 kts 27°
2026-04-21 22:21 -19.35730 -49.87651 25032 ft 341 kts 28°
2026-04-21 22:21 -19.33599 -49.86496 25032 ft 341 kts 28°
2026-04-21 22:21 -19.31498 -49.85336 25029 ft 341 kts 28°
2026-04-21 22:22 -19.29390 -49.84173 25032 ft 341 kts 28°
2026-04-21 22:22 -19.27281 -49.83009 25037 ft 342 kts 28°
2026-04-21 22:22 -19.25150 -49.81834 25035 ft 342 kts 28°
2026-04-21 22:22 -19.23045 -49.80674 25043 ft 343 kts 28°
2026-04-21 22:23 -19.20917 -49.79501 25045 ft 343 kts 28°
2026-04-21 22:23 -19.18785 -49.78327 25042 ft 344 kts 28°
2026-04-21 22:23 -19.16651 -49.77152 25034 ft 344 kts 29°
2026-04-21 22:23 -19.14534 -49.75986 25045 ft 344 kts 28°
2026-04-21 22:24 -19.12394 -49.74808 25042 ft 345 kts 28°
2026-04-21 22:24 -19.10273 -49.73641 25048 ft 345 kts 28°
2026-04-21 22:24 -19.08125 -49.72459 25052 ft 345 kts 29°
2026-04-21 22:24 -19.05988 -49.71284 25048 ft 346 kts 28°
2026-04-21 22:25 -19.03809 -49.70087 25051 ft 346 kts 29°
2026-04-21 22:25 -19.01672 -49.68911 25052 ft 346 kts 29°
2026-04-21 22:25 -18.99522 -49.67730 25045 ft 346 kts 29°
2026-04-21 22:25 -18.97397 -49.66563 25048 ft 346 kts 29°
2026-04-21 22:26 -18.95249 -49.65384 25053 ft 346 kts 29°
2026-04-21 22:26 -18.93104 -49.64206 25050 ft 347 kts 29°
2026-04-21 22:26 -18.90950 -49.63024 25052 ft 347 kts 29°
2026-04-21 22:26 -18.88804 -49.61847 25049 ft 347 kts 29°
2026-04-21 22:27 -18.86660 -49.60670 25048 ft 347 kts 29°
2026-04-21 22:27 -18.84505 -49.59489 25050 ft 346 kts 29°
2026-04-21 22:27 -18.82363 -49.58315 25049 ft 346 kts 29°
2026-04-21 22:27 -18.80207 -49.57140 25051 ft 346 kts 29°
2026-04-21 22:28 -18.78052 -49.55967 25050 ft 346 kts 29°
2026-04-21 22:28 -18.75921 -49.54807 25052 ft 346 kts 29°
2026-04-21 22:28 -18.73785 -49.53645 25054 ft 346 kts 29°
2026-04-21 22:28 -18.71638 -49.52477 25049 ft 346 kts 29°
2026-04-21 22:29 -18.69490 -49.51309 25051 ft 346 kts 29°
2026-04-21 22:29 -18.67346 -49.50143 25046 ft 346 kts 29°
2026-04-21 22:29 -18.65200 -49.48977 25045 ft 346 kts 29°
2026-04-21 22:29 -18.63058 -49.47813 25045 ft 346 kts 29°
2026-04-21 22:30 -18.60942 -49.46663 25047 ft 346 kts 29°
2026-04-21 22:30 -18.58787 -49.45493 25044 ft 346 kts 29°
2026-04-21 22:30 -18.56648 -49.44332 25042 ft 346 kts 29°
2026-04-21 22:30 -18.54487 -49.43159 25044 ft 346 kts 29°
2026-04-21 22:31 -18.52348 -49.41998 25045 ft 346 kts 29°
2026-04-21 22:31 -18.50220 -49.40844 25042 ft 346 kts 29°
2026-04-21 22:31 -18.48075 -49.39681 25040 ft 346 kts 29°
2026-04-21 22:31 -18.45933 -49.38520 25041 ft 345 kts 29°
2026-04-21 22:32 -18.43793 -49.37360 25045 ft 345 kts 29°
2026-04-21 22:32 -18.41657 -49.36203 25044 ft 345 kts 29°
2026-04-21 22:32 -18.39518 -49.35044 25045 ft 345 kts 29°
2026-04-21 22:32 -18.37363 -49.33877 25048 ft 345 kts 29°
2026-04-21 22:33 -18.35244 -49.32730 25049 ft 345 kts 29°
2026-04-21 22:33 -18.33091 -49.31565 25051 ft 345 kts 29°
2026-04-21 22:33 -18.30952 -49.30407 25050 ft 346 kts 29°
2026-04-21 22:33 -18.28824 -49.29256 25051 ft 346 kts 29°
2026-04-21 22:34 -18.26684 -49.28099 25055 ft 345 kts 29°
2026-04-21 22:34 -18.24526 -49.26933 25058 ft 345 kts 29°
2026-04-21 22:34 -18.22380 -49.25773 25063 ft 345 kts 29°
2026-04-21 22:34 -18.20271 -49.24633 25069 ft 345 kts 29°
2026-04-21 22:35 -18.18110 -49.23466 25071 ft 344 kts 29°
2026-04-21 22:35 -18.15994 -49.22323 25081 ft 344 kts 29°
2026-04-21 22:35 -18.13864 -49.21173 25080 ft 344 kts 29°
2026-04-21 22:35 -18.11724 -49.20018 25074 ft 344 kts 29°
2026-04-21 22:36 -18.07437 -49.17726 25081 ft 344 kts 29°
2026-04-21 22:36 -18.05295 -49.16586 25079 ft 344 kts 28°
2026-04-21 22:36 -18.03154 -49.15447 25087 ft 344 kts 28°
2026-04-21 22:37 -18.01032 -49.14319 25086 ft 344 kts 28°
2026-04-21 22:37 -17.98891 -49.13180 25084 ft 344 kts 28°
2026-04-21 22:37 -17.96748 -49.12041 25086 ft 344 kts 29°
2026-04-21 22:37 -17.94616 -49.10907 25086 ft 344 kts 28°
2026-04-21 22:38 -17.92479 -49.09772 25086 ft 344 kts 29°
2026-04-21 22:38 -17.90325 -49.08628 25082 ft 345 kts 28°
2026-04-21 22:38 -17.88194 -49.07496 25081 ft 344 kts 28°
2026-04-21 22:38 -17.86053 -49.06359 25081 ft 344 kts 29°
2026-04-21 22:39 -17.83919 -49.05226 25073 ft 344 kts 28°
2026-04-21 22:39 -17.81767 -49.04084 25077 ft 344 kts 29°
2026-04-21 22:39 -17.79637 -49.02954 25073 ft 344 kts 29°
2026-04-21 22:39 -17.77474 -49.01807 25070 ft 343 kts 28°
2026-04-21 22:40 -17.75362 -49.00688 25067 ft 343 kts 28°
2026-04-21 22:40 -17.73208 -48.99543 25074 ft 342 kts 30°
2026-04-21 22:40 -17.71121 -48.98330 25081 ft 342 kts 31°
2026-04-21 22:40 -17.69045 -48.97114 25079 ft 342 kts 31°
2026-04-21 22:41 -17.66985 -48.95908 25083 ft 342 kts 31°
2026-04-21 22:41 -17.64904 -48.94691 25077 ft 342 kts 31°
2026-04-21 22:41 -17.62821 -48.93473 25081 ft 342 kts 31°
2026-04-21 22:41 -17.60731 -48.92252 25088 ft 341 kts 31°
2026-04-21 22:42 -17.58665 -48.91045 25088 ft 341 kts 31°
2026-04-21 22:42 -17.56569 -48.89821 25081 ft 342 kts 31°
2026-04-21 22:42 -17.54509 -48.88619 25091 ft 341 kts 31°
2026-04-21 22:42 -17.52275 -48.87696 25097 ft 342 kts 21°
2026-04-21 22:43 -17.50103 -48.86719 25096 ft 341 kts 26°
2026-04-21 22:43 -17.47905 -48.85698 25079 ft 340 kts 30°
2026-04-21 22:43 -17.46087 -48.84178 25102 ft 335 kts 50°
2026-04-21 22:43 -17.44511 -48.82350 25097 ft 335 kts 50°
2026-04-21 22:44 -17.42928 -48.80559 25103 ft 336 kts 49°
2026-04-21 22:44 -17.41340 -48.78785 25108 ft 336 kts 49°
2026-04-21 22:44 -17.39730 -48.76995 25107 ft 336 kts 49°
2026-04-21 22:44 -17.38117 -48.75205 25111 ft 336 kts 49°
2026-04-21 22:45 -17.36511 -48.73425 25113 ft 336 kts 49°
2026-04-21 22:45 -17.34924 -48.71667 25115 ft 336 kts 49°
2026-04-21 22:45 -17.33316 -48.69886 25112 ft 336 kts 49°
2026-04-21 22:45 -17.31697 -48.68093 25114 ft 336 kts 49°
2026-04-21 22:46 -17.30090 -48.66315 25110 ft 336 kts 49°
2026-04-21 22:46 -17.28477 -48.64530 25113 ft 336 kts 49°
2026-04-21 22:46 -17.26862 -48.62744 25116 ft 336 kts 49°
2026-04-21 22:46 -17.25267 -48.60980 25113 ft 336 kts 49°
2026-04-21 22:47 -17.23647 -48.59190 25116 ft 336 kts 49°
2026-04-21 22:47 -17.22037 -48.57410 25119 ft 336 kts 49°
2026-04-21 22:47 -17.20424 -48.55627 25117 ft 336 kts 49°
2026-04-21 22:47 -17.18811 -48.53846 25110 ft 337 kts 49°
2026-04-21 22:48 -17.17217 -48.52086 25098 ft 333 kts 49°
2026-04-21 22:48 -17.15633 -48.50336 24913 ft 330 kts 49°
2026-04-21 22:48 -17.14050 -48.48588 24612 ft 330 kts 49°
2026-04-21 22:48 -17.12459 -48.46832 24281 ft 331 kts 49°
2026-04-21 22:49 -17.10861 -48.45070 23968 ft 332 kts 49°
2026-04-21 22:49 -17.09265 -48.43310 23686 ft 331 kts 49°
2026-04-21 22:49 -17.07690 -48.41573 23426 ft 330 kts 49°
2026-04-21 22:49 -17.06106 -48.39828 23180 ft 328 kts 49°
2026-04-21 22:50 -17.04539 -48.38100 22946 ft 326 kts 49°
2026-04-21 22:50 -17.02981 -48.36385 22709 ft 324 kts 49°
2026-04-21 22:50 -17.01443 -48.34690 22467 ft 323 kts 49°
2026-04-21 22:50 -16.99888 -48.32978 22228 ft 322 kts 49°
2026-04-21 22:51 -16.98352 -48.31287 22137 ft 316 kts 49°
2026-04-21 22:51 -16.96848 -48.29632 22118 ft 309 kts 49°
2026-04-21 22:51 -16.95392 -48.28032 22121 ft 302 kts 49°
2026-04-21 22:51 -16.93947 -48.26442 22117 ft 296 kts 49°
2026-04-21 22:52 -16.92537 -48.24891 22116 ft 290 kts 49°
2026-04-21 22:52 -16.91173 -48.23391 22118 ft 286 kts 50°
2026-04-21 22:52 -16.89766 -48.21843 22135 ft 298 kts 49°
2026-04-21 22:52 -16.88318 -48.20252 22131 ft 308 kts 49°
2026-04-21 22:53 -16.86800 -48.18584 22136 ft 318 kts 49°
2026-04-21 22:53 -16.85273 -48.16907 22134 ft 325 kts 49°
2026-04-21 22:53 -16.83695 -48.15174 22132 ft 332 kts 49°
2026-04-21 22:53 -16.82078 -48.13399 22128 ft 337 kts 49°
2026-04-21 22:54 -16.80454 -48.11616 22124 ft 341 kts 49°
2026-04-21 22:54 -16.78638 -48.09969 22078 ft 349 kts 33°
2026-04-21 22:54 -16.76366 -48.09092 22116 ft 355 kts 12°
2026-04-21 22:54 -16.73875 -48.08984 22148 ft 357 kts 360°
2026-04-21 22:55 -16.71372 -48.09146 22116 ft 361 kts 356°
2026-04-21 22:55 -16.68867 -48.09408 22117 ft 363 kts 355°
2026-04-21 22:55 -16.66343 -48.09709 22121 ft 364 kts 354°
2026-04-21 22:55 -16.63815 -48.10025 22121 ft 365 kts 354°
2026-04-21 22:56 -16.61270 -48.10349 22125 ft 366 kts 354°
2026-04-21 22:56 -16.58735 -48.10673 22127 ft 367 kts 354°
2026-04-21 22:56 -16.56187 -48.10999 22131 ft 368 kts 354°
2026-04-21 22:56 -16.53619 -48.11328 22131 ft 368 kts 354°
2026-04-21 22:57 -16.51063 -48.11655 22134 ft 369 kts 354°
2026-04-21 22:57 -16.48501 -48.11984 22135 ft 369 kts 354°
2026-04-21 22:57 -16.45994 -48.12304 22077 ft 357 kts 354°
2026-04-21 22:57 -16.43564 -48.12614 21488 ft 349 kts 354°
2026-04-21 22:58 -16.41123 -48.12926 20568 ft 353 kts 354°
2026-04-21 22:58 -16.38676 -48.13238 19440 ft 360 kts 354°
2026-04-21 22:58 -16.36157 -48.13560 18319 ft 363 kts 354°
2026-04-21 22:58 -16.33623 -48.13884 17341 ft 350 kts 354°
2026-04-21 22:59 -16.31322 -48.14180 16830 ft 325 kts 355°
2026-04-21 22:59 -16.29104 -48.14463 16368 ft 314 kts 355°
2026-04-21 22:59 -16.26952 -48.14738 15917 ft 305 kts 355°
2026-04-21 22:59 -16.24877 -48.15003 15471 ft 297 kts 355°
2026-04-21 23:00 -16.22835 -48.15263 14958 ft 293 kts 355°
2026-04-21 23:00 -16.20808 -48.15522 14282 ft 294 kts 355°
2026-04-21 23:00 -16.18749 -48.15785 13609 ft 293 kts 355°
2026-04-21 23:00 -16.16705 -48.16046 12930 ft 291 kts 355°
2026-04-21 23:01 -16.14700 -48.16301 12257 ft 290 kts 354°
2026-04-21 23:01 -16.12694 -48.16557 11560 ft 288 kts 354°
2026-04-21 23:01 -16.10709 -48.16810 10873 ft 286 kts 354°
2026-04-21 23:01 -16.08760 -48.17059 10212 ft 284 kts 354°
2026-04-21 23:02 -16.06786 -48.17310 9398 ft 286 kts 354°
2026-04-21 23:02 -16.04803 -48.17563 8592 ft 287 kts 354°
2026-04-21 23:02 -16.02821 -48.17816 7771 ft 287 kts 354°
2026-04-21 23:02 -16.00855 -48.18067 7200 ft 278 kts 354°
2026-04-21 23:03 -15.98973 -48.18382 7114 ft 273 kts 344°
2026-04-21 23:03 -15.97237 -48.19152 7132 ft 265 kts 340°
2026-04-21 23:03 -15.95505 -48.19785 7111 ft 260 kts 344°
2026-04-21 23:03 -15.93787 -48.20289 7119 ft 255 kts 348°
2026-04-21 23:04 -15.92038 -48.20689 7028 ft 255 kts 351°
2026-04-21 23:04 -15.90312 -48.20928 6727 ft 242 kts
2026-04-21 23:04 -15.88781 -48.20420 6520 ft 220 kts 38°
2026-04-21 23:04 -15.87916 -48.19244 6499 ft 203 kts 73°
2026-04-21 23:05 -15.87819 -48.17781 6517 ft 205 kts 92°
2026-04-21 23:05 -15.87815 -48.16290 6509 ft 209 kts 89°
2026-04-21 23:05 -15.87748 -48.14760 6507 ft 213 kts 87°
2026-04-21 23:05 -15.87657 -48.13214 6516 ft 215 kts 87°
2026-04-21 23:06 -15.87562 -48.11687 6522 ft 199 kts 87°
2026-04-21 23:06 -15.87478 -48.10348 6264 ft 168 kts 87°
2026-04-21 23:06 -15.87409 -48.09266 6182 ft 133 kts 87°
2026-04-21 23:06 -15.87351 -48.08373 6197 ft 119 kts 87°
2026-04-21 23:07 -15.87295 -48.07522 6196 ft 116 kts 87°
2026-04-21 23:07 -15.87244 -48.06692 6199 ft 114 kts 87°
2026-04-21 23:07 -15.87195 -48.05880 6203 ft 113 kts 87°
2026-04-21 23:07 -15.87143 -48.05055 6202 ft 112 kts 87°
2026-04-21 23:08 -15.87092 -48.04248 6204 ft 112 kts 87°
2026-04-21 23:08 -15.87041 -48.03448 6204 ft 111 kts 87°
2026-04-21 23:08 -15.86990 -48.02647 6205 ft 110 kts 87°
2026-04-21 23:08 -15.86938 -48.01825 6121 ft 118 kts 87°
2026-04-21 23:09 -15.86884 -48.00951 5966 ft 126 kts 86°
2026-04-21 23:09 -15.86835 -48.00053 5565 ft 124 kts 89°
2026-04-21 23:09 -15.86841 -47.99184 5209 ft 118 kts 92°
2026-04-21 23:09 -15.86832 -47.98354 4881 ft 113 kts 87°
2026-04-21 23:10 -15.86761 -47.97500 4663 ft 125 kts 83°
2026-04-21 23:10 -15.86669 -47.96638 4376 ft 120 kts 86°
2026-04-21 23:10 -15.86616 -47.95786 4093 ft 114 kts 84°
2026-04-21 23:10 -15.86515 -47.94929 3908 ft 125 kts 83°
2026-04-21 23:11 -15.86420 -47.94028 3735 ft 121 kts 88°
2026-04-21 23:11 -15.86374 -47.93189 3583 ft 114 kts 85°
2026-04-21 23:11 -15.86327 -47.92365 3464 ft 110 kts 84°
2026-04-21 23:11 -15.86292 -47.91799 3462 ft 52 kts 86°
2026-04-21 23:12 -15.86276 -47.91546 3464 ft 20 kts 85°
2026-04-21 23:12 -15.86267 -47.91396 3466 ft 17 kts 104°
2026-04-21 23:12 -15.86334 -47.91387 3469 ft 12 kts 229°
2026-04-21 23:12 -15.86357 -47.91425 3469 ft 9 kts 237°
2026-04-21 23:13 -15.86397 -47.91484 3468 ft 6 kts 236°
2026-04-21 23:13 -15.86406 -47.91499 3468 ft 0 kts 237°
2026-04-21 23:13 -15.86407 -47.91500 3468 ft 2 kts 237°
2026-04-21 23:13 -15.86411 -47.91507 3468 ft 0 kts 239°
2026-04-21 23:14 -15.86414 -47.91512 3468 ft 2 kts 238°
2026-04-21 23:14 -15.86445 -47.91559 3468 ft 16 kts 238°
2026-04-21 23:15 -15.86475 -47.91681 3469 ft 11 kts 266°
2026-04-21 23:15 -15.86486 -47.91824 3467 ft 29 kts 265°
2026-04-21 23:15 -15.86499 -47.92023 3467 ft 21 kts 267°
2026-04-21 23:15 -15.86506 -47.92144 3467 ft 22 kts 267°
2026-04-21 23:16 -15.86517 -47.92320 3468 ft 24 kts 266°
2026-04-21 23:16 -15.86578 -47.92413 3468 ft 13 kts 203°
2026-04-21 23:16 -15.86699 -47.92485 3474 ft 24 kts 208°
2026-04-21 23:16 -15.86747 -47.92615 3474 ft 20 kts 271°
2026-04-21 23:17 -15.86756 -47.92768 3473 ft 29 kts 265°
2026-04-21 23:17 -15.86769 -47.92959 3469 ft 15 kts 268°
2026-04-21 23:17 -15.86764 -47.93028 3467 ft 6 kts 10°
2026-04-21 23:17 -15.86750 -47.93006 3467 ft 0 kts 140°